Vertical_Velocity
3 -1 -3 -1 -2 -0 -0 0 4 4 1 2 7 5 4 8 5 -12 -1 -1 9 4
1 -1 -4 -1 -3 -0 -0 2 3 -1 -5 7 2 5 -0 7 -5 6 5 4 7 5
1 0 -1 -0 -1 1 -2 0 2 0 3 3 -2 4 3 -6 -3 -1 -5 -0 10 10
-0 -0 0 -1 -1 2 -2 1 4 0 -1 2 8 4 10 5 9 -3 -5 9 -9 11
0 -1 0 -0 -0 3 -2 -3 5 -1 -1 1 2 7 2 1 -2 -1 1 1 -11 4
-1 -0 0 -1 1 4 -2 -6 1 -2 -2 -4 -3 -3 4 4 1 -1 -7 -17 -2 1
-1 -3 -2 -2 0 1 2 -4 -1 -4 -3 -1 -1 -1 2 4 -1 0 -3 -3 -6 4
1 -1 2 -4 -1 4 -1 2 -1 3 -0 -2 1 -2 -0 0 1 1 2 3 4 2
1 1 2 -1 0 3 0 3 4 0 1 1 -0 0 1 5 -2 -0 -0 -4 0 3
-2 -1 1 1 1 2 0 2 -1 0 4 2 2 2 -0 3 7 6 2 -0 2 3
-2 -1 0 0 -1 2 1 -1 -0 1 0 2 -2 0 3 2 0 -2 -1 -0 0 2
-0 -0 2 1 1 -1 -2 -1 -2 -2 -0 1 -1 1 1 4 5 1 -1 2 7 4
9 0 3 0 4 -1 3 -1 9 6 0 -4 5 -3 3 10 5 1 9 -2 -4 -3
3 2 1 1 3 3 5 3 5 3 2 2 3 -1 -1 2 11 2 4 5 4 4
Height
1422 1425 1429 1431 1434 1437 1441 1444 1448 1451 1454 1459 1462 1466 1470 1476 1485 1492 1500 1507 1512 1518
1416 1421 1424 1428 1430 1434 1438 1441 1444 1447 1451 1454 1458 1459 1466 1473 1479 1488 1494 1501 1509 1514
1412 1417 1421 1424 1428 1432 1435 1438 1440 1442 1446 1450 1453 1457 1461 1468 1476 1483 1491 1496 1502 1505
1409 1414 1418 1422 1426 1430 1434 1436 1437 1438 1442 1446 1449 1452 1455 1461 1467 1476 1483 1488 1495 1500
1406 1411 1415 1419 1423 1427 1431 1434 1436 1436 1440 1443 1447 1449 1452 1456 1462 1470 1477 1482 1492 1498
1402 1408 1413 1417 1421 1425 1428 1432 1435 1437 1439 1442 1445 1448 1451 1454 1458 1465 1472 1482 1486 1492
1400 1406 1411 1415 1419 1422 1426 1429 1432 1436 1438 1440 1442 1445 1449 1453 1457 1463 1470 1476 1481 1487
1397 1403 1407 1411 1416 1419 1423 1426 1430 1433 1436 1439 1441 1444 1447 1451 1456 1461 1466 1471 1477 1481
1395 1400 1404 1408 1413 1416 1420 1423 1427 1430 1433 1436 1440 1443 1446 1450 1453 1458 1463 1468 1472 1477
1394 1399 1402 1406 1410 1413 1416 1420 1423 1426 1430 1432 1436 1440 1444 1448 1452 1455 1459 1464 1468 1472
1393 1397 1400 1403 1406 1410 1412 1415 1419 1422 1426 1429 1432 1436 1440 1444 1447 1451 1454 1458 1461 1464
1393 1395 1397 1400 1403 1406 1409 1411 1414 1418 1421 1423 1426 1430 1433 1437 1440 1442 1445 1450 1454 1457
1388 1389 1392 1396 1398 1401 1404 1407 1410 1412 1414 1415 1419 1420 1425 1429 1431 1434 1437 1438 1442 1445
1386 1387 1389 1392 1394 1396 1399 1402 1404 1405 1407 1409 1411 1413 1417 1420 1422 1424 1425 1427 1430 1432